EW8805 Carrion De Calatrava ES current weather conditions

sailwx.info

Wind from 259 at 10 knots gusting 14

Air temperature 7.2° C
Dewpoint 5.2° C

Last reported at 2019-Jan-23 00:10 UTC.
Time now 2019-Jan-23 01:12 UTC

Location: N 39°01' W 003°49'.
View on Google Maps.

See reports from other nearby stations

  
Tides and Currents Weather Stations Pressure Air Temp Water Temp Dewpoint Dewpoint Depression Visibility Wind Speed Wind Dir Waves Ship Positions
date/time (UTC)wind fromknots sea level pressurealtimeterstation pressurevisibilityair tempwater tempwave heightnotes
2019-Jan-23 00:10 259 10 gusting 14 7.2
2019-Jan-23 00:05 257 10 gusting 14 7.2
2019-Jan-22 23:55 278 12 gusting 13 7.2
2019-Jan-22 23:45 284 7 gusting 13 7.2
2019-Jan-22 23:40 270 8 gusting 13 7.2
2019-Jan-22 23:35 253 6 gusting 12 7.2
2019-Jan-22 23:30 276 7 gusting 12 7.2
2019-Jan-22 23:25 259 8 gusting 13 7.2
2019-Jan-22 23:20 274 7 gusting 12 7.2
2019-Jan-22 23:15 236 7 gusting 12 7.2
2019-Jan-22 23:10 266 8 gusting 12 7.2
2019-Jan-22 23:05 260 7 gusting 12 7.2
2019-Jan-22 23:01 253 6 gusting 12 7.2
2019-Jan-22 22:55 267 6 gusting 10 7.2
2019-Jan-22 22:50 270 6 gusting 11 7.2
2019-Jan-22 22:45 267 6 gusting 11 7.2
2019-Jan-22 22:40 269 7 gusting 11 7.2
2019-Jan-22 22:35 274 6 gusting 13 7.2
2019-Jan-22 22:30 263 9 gusting 13 7.2
2019-Jan-22 22:25 262 7 gusting 10 7.2
2019-Jan-22 22:15 269 6 gusting 9 7.2
2019-Jan-22 22:10 253 6 gusting 13 7.2
2019-Jan-22 22:05 265 7 gusting 14 7.2
2019-Jan-22 22:00 238 10 gusting 14 7.2
2019-Jan-22 21:55 253 10 gusting 14 7.2
2019-Jan-22 21:50 255 9 gusting 14 7.2
2019-Jan-22 21:40 278 10 gusting 15 7.2
2019-Jan-22 21:35 278 8 gusting 13 7.2
2019-Jan-22 21:30 264 8 gusting 13 7.2
2019-Jan-22 21:20 266 9 gusting 13 7.2
2019-Jan-22 21:15 269 10 gusting 14 7.2
2019-Jan-22 21:05 262 10 gusting 14 7.2
2019-Jan-22 21:00 252 8 gusting 14 7.2
2019-Jan-22 20:55 249 10 gusting 15 7.2
2019-Jan-22 20:50 253 11 gusting 15 7.2
2019-Jan-22 20:45 253 11 gusting 15 7.2
2019-Jan-22 20:40 264 12 gusting 16 7.2
2019-Jan-22 20:35 270 12 gusting 18 7.2
2019-Jan-22 20:30 266 11 gusting 17 7.2
2019-Jan-22 20:25 256 12 gusting 15 7.2
2019-Jan-22 20:20 266 10 gusting 15 7.2
2019-Jan-22 20:10 281 12 gusting 17 7.2
2019-Jan-22 20:05 249 11 gusting 16 7.2
2019-Jan-22 20:00 256 11 gusting 13 7.2
2019-Jan-22 19:55 259 10 gusting 13 7.2
2019-Jan-22 19:50 264 9 gusting 16 7.2
2019-Jan-22 19:45 259 12 gusting 16 7.2
2019-Jan-22 19:40 262 10 gusting 18 7.2
2019-Jan-22 19:35 250 10 gusting 15 7.2
2019-Jan-22 19:30 252 11 gusting 14 6.7
2019-Jan-22 19:20 262 9 gusting 18 6.7
2019-Jan-22 19:10 243 12 gusting 16 6.7
2019-Jan-22 19:05 263 11 gusting 16 6.7
2019-Jan-22 18:55 256 8 gusting 13 6.7
2019-Jan-22 18:50 259 9 gusting 13 6.7
2019-Jan-22 18:45 274 8 gusting 12 6.1
2019-Jan-22 18:40 255 8 gusting 12 6.1
2019-Jan-22 18:30 255 7 gusting 10 6.1
2019-Jan-22 18:25 240 6 gusting 10 6.1
2019-Jan-22 18:20 229 6 gusting 10 6.1
2019-Jan-22 18:10 253 5 gusting 10 6.1
2019-Jan-22 18:05 248 6 gusting 10 6.1
2019-Jan-22 18:00 260 6 gusting 10 6.1
2019-Jan-22 17:55 232 5 gusting 10 6.1
2019-Jan-22 17:45 263 6 gusting 10 6.1
2019-Jan-22 17:40 264 7 gusting 13 6.1
2019-Jan-22 17:35 264 6 gusting 13 6.1
2019-Jan-22 17:30 236 9 gusting 13 6.1
2019-Jan-22 17:25 232 7 gusting 15 6.7
2019-Jan-22 17:15 240 8 gusting 14 6.7
2019-Jan-22 17:10 231 9 gusting 14 6.7
2019-Jan-22 17:05 240 10 gusting 14 6.7
2019-Jan-22 16:55 249 10 gusting 18 6.7
2019-Jan-22 16:45 249 9 gusting 16 7.2
2019-Jan-22 16:35 248 11 gusting 17 7.2
2019-Jan-22 16:30 233 11 gusting 17 7.2
2019-Jan-22 16:25 249 11 gusting 16 7.2
2019-Jan-22 16:15 234 6 gusting 16 7.8
2019-Jan-22 16:10 249 9 gusting 16 7.8
2019-Jan-22 16:05 249 9 gusting 15 7.8
2019-Jan-22 16:00 275 9 gusting 17 7.8
2019-Jan-22 15:55 255 12 gusting 16 7.8
2019-Jan-22 15:45 240 7 gusting 13 7.8
2019-Jan-22 15:40 269 8 gusting 13 7.8
2019-Jan-22 15:35 253 10 gusting 13 7.8
2019-Jan-22 15:25 249 6 gusting 13 7.8
2019-Jan-22 15:15 231 8 gusting 14 8.3
2019-Jan-22 15:10 238 6 gusting 13 8.3
2019-Jan-22 15:05 267 9 gusting 14 8.3
2019-Jan-22 15:00 249 9 gusting 15 8.3
2019-Jan-22 14:55 264 8 gusting 15 8.3
2019-Jan-22 14:50 266 10 gusting 15 8.3
2019-Jan-22 14:45 263 10 gusting 16 8.3
2019-Jan-22 14:40 267 9 gusting 16 8.3
2019-Jan-22 14:30 256 10 gusting 14 8.3
2019-Jan-22 14:25 259 9 gusting 13 8.3
2019-Jan-22 14:20 264 9 gusting 13 8.3
2019-Jan-22 14:10 263 7 gusting 13 8.3
2019-Jan-22 14:05 275 7 gusting 11 8.3
2019-Jan-22 14:00 276 7 gusting 13 8.3
2019-Jan-22 13:55 263 7 gusting 13 7.8
2019-Jan-22 13:50 278 8 gusting 13 7.8
2019-Jan-22 13:45 270 9 gusting 15 7.8
2019-Jan-22 13:40 243 11 gusting 15 7.2
2019-Jan-22 13:35 236 8 gusting 12 7.2
2019-Jan-22 13:30 250 6 gusting 11 7.2
2019-Jan-22 13:25 229 6 gusting 12 7.2
2019-Jan-22 13:20 249 8 gusting 12 7.2
2019-Jan-22 13:15 239 5 gusting 13 6.7
2019-Jan-22 13:10 262 7 gusting 13 6.7
2019-Jan-22 13:00 253 8 gusting 13 6.7
2019-Jan-22 12:55 246 7 gusting 13 6.7
2019-Jan-22 12:50 240 7 gusting 11 6.7
2019-Jan-22 12:45 242 7 gusting 11 6.7
2019-Jan-22 12:40 234 6 gusting 13 6.1
2019-Jan-22 12:35 259 7 gusting 13 6.1
2019-Jan-22 12:25 229 8 gusting 13 6.1
2019-Jan-22 12:20 269 7 gusting 13 6.1
2019-Jan-22 12:15 232 8 gusting 13 5.6
2019-Jan-22 12:10 243 8 gusting 13 5.6
2019-Jan-22 12:05 243 7 gusting 12 5.6
2019-Jan-22 12:00 231 7 gusting 12 5.6
2019-Jan-22 11:55 259 8 gusting 11 5.6
2019-Jan-22 11:50 243 5 gusting 10 5.6
2019-Jan-22 11:45 250 8 gusting 10 5.6
2019-Jan-22 11:40 240 4 gusting 9 5.6
2019-Jan-22 11:35 250 6 gusting 10 5.0
2019-Jan-22 11:30 246 8 gusting 10 5.0
2019-Jan-22 11:20 255 6 gusting 7 5.0
2019-Jan-22 11:15 242 5 gusting 9 5.0
2019-Jan-22 11:10 232 6 gusting 9 5.0
2019-Jan-22 11:05 243 6 gusting 7 4.4
2019-Jan-22 11:00 255 4 gusting 7 4.4
2019-Jan-22 10:55 253 4 gusting 7 4.4
2019-Jan-22 10:50 259 5 gusting 7 4.4
2019-Jan-22 10:45 253 5 gusting 7 4.4
2019-Jan-22 10:40 211 6 gusting 7 3.9
2019-Jan-22 10:35 240 4 gusting 6 3.9
2019-Jan-22 10:25 217 2 gusting 4 3.3
2019-Jan-22 10:20 236 2 gusting 5 3.3
2019-Jan-22 10:10 248 1 gusting 2 2.8
2019-Jan-22 10:05 238 0 gusting 2 2.8
2019-Jan-22 10:00 233 0 gusting 2 2.8
2019-Jan-22 09:55 215 1 gusting 2 2.2
2019-Jan-22 09:45 226 0 gusting 1 1.7
2019-Jan-22 09:35 219 0 gusting 1 1.1
2019-Jan-22 09:30 243 1.1
2019-Jan-22 09:25 160 0 gusting 2 1.1
2019-Jan-22 09:15 222 0 gusting 1 0.6
2019-Jan-22 09:10 256 0.6
2019-Jan-22 09:05 250 0.6
2019-Jan-22 09:00 092 0.6
2019-Jan-22 08:55 092 -0.0
2019-Jan-22 08:50 084 0.6
2019-Jan-22 08:40 150 -0.0
2019-Jan-22 08:35 136 -0.0
2019-Jan-22 08:25 169 -0.6
2019-Jan-22 08:20 212 -0.6
2019-Jan-22 08:15 205 -0.6
2019-Jan-22 08:10 222 -0.6
2019-Jan-22 08:00 226 -1.1
2019-Jan-22 07:55 226 -1.1
2019-Jan-22 07:50 226 -1.1
2019-Jan-22 07:40 226 -0.6
2019-Jan-22 07:35 193 -1.1
2019-Jan-22 07:30 193 -1.1
2019-Jan-22 07:20 153 -1.1
2019-Jan-22 07:15 152 -1.1
2019-Jan-22 07:10 152 -1.1
2019-Jan-22 07:05 152 -1.7
2019-Jan-22 07:00 222 -1.7
2019-Jan-22 06:55 225 -1.7
2019-Jan-22 06:45 225 -2.2
2019-Jan-22 06:40 225 -2.2
2019-Jan-22 06:30 225 -2.8
2019-Jan-22 06:25 225 -2.8
2019-Jan-22 06:20 225 -2.8
2019-Jan-22 06:10 225 -2.8
2019-Jan-22 06:00 225 -2.8
2019-Jan-22 05:55 225 -2.2
2019-Jan-22 05:50 225 -2.2
2019-Jan-22 05:45 224 -2.2
2019-Jan-22 05:40 225 -2.2
2019-Jan-22 05:30 225 -1.1
2019-Jan-22 05:25 225 -1.1
2019-Jan-22 05:20 222 -0.6
2019-Jan-22 05:15 221 -0.6
2019-Jan-22 05:05 221 -0.6
2019-Jan-22 05:00 229 -0.6
2019-Jan-22 04:55 232 -0.6
2019-Jan-22 04:50 219 -0.6
2019-Jan-22 04:45 228 0 gusting 1 -0.6
2019-Jan-22 04:40 225 0 gusting 1 -0.6
2019-Jan-22 04:35 236 0 gusting 0 -1.1
2019-Jan-22 04:30 233 -1.1
2019-Jan-22 04:25 225 -1.1
2019-Jan-22 04:20 222 -1.1
2019-Jan-22 04:15 235 -1.1
2019-Jan-22 04:10 235 -1.1
2019-Jan-22 04:00 235 -1.1
2019-Jan-22 03:55 253 -0.6
2019-Jan-22 03:50 243 -0.6
2019-Jan-22 03:40 243 -0.6
2019-Jan-22 03:35 220 -1.1
2019-Jan-22 03:30 221 -1.1
2019-Jan-22 03:20 233 -1.1
2019-Jan-22 03:15 233 -1.1
2019-Jan-22 03:10 246 -1.1
2019-Jan-22 03:05 233 -1.1
2019-Jan-22 03:00 250 -1.1
2019-Jan-22 02:55 252 1 gusting 2 -1.1
2019-Jan-22 02:50 217 0 gusting 1 -1.1
2019-Jan-22 02:40 224 -0.6
2019-Jan-22 02:35 238 0 gusting 1 -0.6
2019-Jan-22 02:30 257 0 gusting 2 -0.6
2019-Jan-22 02:20 240 1 gusting 2 -0.6
2019-Jan-22 02:15 233 -0.6
2019-Jan-22 02:10 197 -0.6
2019-Jan-22 02:05 259 -0.6
2019-Jan-22 01:55 266 -0.0
2019-Jan-22 01:50 274 1 gusting 2 1.1
2019-Jan-22 01:45 250 1.7
2019-Jan-22 01:40 208 0 gusting 2 1.7
2019-Jan-22 01:35 221 0 gusting 1 1.1
2019-Jan-22 01:30 231 0 gusting 1 1.1
2019-Jan-22 01:20 232 1.1
2019-Jan-22 01:10 204 1.1
2019-Jan-22 01:05 232 1.1
2019-Jan-22 00:55 226 0.6
2019-Jan-22 00:50 155 0.6
2019-Jan-22 00:40 137 1.1
2019-Jan-22 00:30 172 0.6
2019-Jan-22 00:25 212 1 gusting 3 1.1
2019-Jan-22 00:20 248 1.1
2019-Jan-22 00:15 240 1.7
2019-Jan-22 00:10 240 1.7
2019-Jan-22 00:05 219 0 gusting 2 1.7
2019-Jan-21 23:55 266 2.8
2019-Jan-21 23:45 004 0 gusting 1 3.3
2019-Jan-21 23:40 269 3.3
2019-Jan-21 23:35 266 2.8
2019-Jan-21 23:30 259 0 gusting 2 2.8
2019-Jan-21 23:25 257 0 gusting 2 2.8
2019-Jan-21 23:20 249 0 gusting 2 3.9
2019-Jan-21 23:15 321 1 gusting 3 3.9
2019-Jan-21 23:10 324 1 gusting 3 3.9
2019-Jan-21 23:05 328 1 gusting 3 3.9
2019-Jan-21 23:00 004 1 gusting 3 3.9
2019-Jan-21 22:55 329 3.3
2019-Jan-21 22:50 350 0 gusting 2 3.9
2019-Jan-21 22:45 301 0 gusting 2 3.9
2019-Jan-21 22:40 309 0 gusting 2 3.9
2019-Jan-21 22:35 333 1 gusting 3 3.9
2019-Jan-21 22:30 308 2 gusting 3 3.9
2019-Jan-21 22:20 305 1 gusting 2 3.9
2019-Jan-21 22:15 290 1 gusting 2 3.9
2019-Jan-21 22:10 319 3.9
2019-Jan-21 22:05 302 3.9
2019-Jan-21 22:00 283 3.9
2019-Jan-21 21:55 267 1 gusting 2 3.9
2019-Jan-21 21:50 300 3.9
2019-Jan-21 21:45 341 3.9
2019-Jan-21 21:35 351 1 gusting 3 4.4
2019-Jan-21 21:30 001 1 gusting 2 4.4
2019-Jan-21 21:25 023 0 gusting 1 4.4
2019-Jan-21 21:20 015 0 gusting 1 4.4
2019-Jan-21 21:15 038 4.4
2019-Jan-21 21:05 019 1 gusting 3 3.9
2019-Jan-21 21:00 319 1 gusting 3 3.9
2019-Jan-21 20:55 300 2 gusting 5 4.4
2019-Jan-21 20:50 303 1 gusting 6 4.4
2019-Jan-21 20:45 335 2 gusting 6 4.4
2019-Jan-21 20:40 317 1 gusting 5 4.4
2019-Jan-21 20:35 276 2 gusting 5 4.4
2019-Jan-21 20:30 311 2 gusting 6 4.4
2019-Jan-21 20:25 323 3 gusting 6 4.4
2019-Jan-21 20:20 310 3 gusting 8 4.4
2019-Jan-21 20:15 307 6 gusting 8 4.4
2019-Jan-21 20:10 300 3 gusting 5 3.3
2019-Jan-21 20:05 290 2 gusting 6 3.3
2019-Jan-21 19:55 297 3 gusting 5 3.9
2019-Jan-21 19:50 321 0 gusting 5 3.9
2019-Jan-21 19:45 349 1 gusting 5 3.9
2019-Jan-21 19:40 323 2 gusting 4 3.9
2019-Jan-21 19:35 305 1 gusting 5 3.9
2019-Jan-21 19:30 317 2 gusting 6 3.9
2019-Jan-21 19:25 311 2 gusting 6 3.9
2019-Jan-21 19:15 305 2 gusting 5 4.4
2019-Jan-21 19:10 293 2 gusting 6 4.4
2019-Jan-21 19:05 340 3 gusting 6 5.0
2019-Jan-21 19:00 336 2 gusting 5 5.0
2019-Jan-21 18:55 314 5.0
2019-Jan-21 18:50 308 0 gusting 3 5.0
2019-Jan-21 18:45 291 1 gusting 3 5.0
2019-Jan-21 18:40 263 1 gusting 2 5.0
2019-Jan-21 18:35 255 0 gusting 1 5.6
2019-Jan-21 18:30 300 6.1
2019-Jan-21 18:25 300 0 gusting 2 6.7
2019-Jan-21 18:20 305 1 gusting 4 6.7
2019-Jan-21 18:15 302 2 gusting 4 6.7
2019-Jan-21 18:10 294 2 gusting 4 6.7
2019-Jan-21 18:05 314 2 gusting 5 6.7
2019-Jan-21 17:55 321 2 gusting 4 7.2
2019-Jan-21 17:50 323 2 gusting 6 7.2
2019-Jan-21 17:45 317 3 gusting 4 7.2
2019-Jan-21 17:40 329 0 gusting 2 7.2
2019-Jan-21 17:35 344 0 gusting 3 7.2
2019-Jan-21 17:30 303 2 gusting 3 7.2
2019-Jan-21 17:25 304 1 gusting 2 7.8
2019-Jan-21 17:20 309 0 gusting 2 7.8
2019-Jan-21 17:15 346 0 gusting 4 8.3
2019-Jan-21 17:10 012 2 gusting 4 8.3
2019-Jan-21 17:05 304 2 gusting 5 8.3
2019-Jan-21 17:00 333 0 gusting 5 8.3
2019-Jan-21 16:55 330 1 gusting 5 8.3
2019-Jan-21 16:50 337 1 gusting 5 8.3
2019-Jan-21 16:45 319 2 gusting 5 8.3
2019-Jan-21 16:40 009 1 gusting 5 8.9
2019-Jan-21 16:35 332 2 gusting 6 8.9
2019-Jan-21 16:30 004 3 gusting 6 9.4
2019-Jan-21 16:20 356 4 gusting 9 10.0
2019-Jan-21 16:15 340 4 gusting 9 10.0
2019-Jan-21 16:10 331 3 gusting 7 10.0
2019-Jan-21 16:05 046 0 gusting 4 9.4
2019-Jan-21 16:00 006 2 gusting 6 9.4
2019-Jan-21 15:55 020 4 gusting 11 9.4
2019-Jan-21 15:45 023 6 gusting 12 10.0
2019-Jan-21 15:40 005 5 gusting 10 10.0
2019-Jan-21 15:35 029 2 gusting 8 10.0
2019-Jan-21 15:25 019 6 gusting 10 9.4
2019-Jan-21 15:20 021 5 gusting 11 9.4
2019-Jan-21 15:15 291 5 gusting 11 10.0
2019-Jan-21 15:05 004 6 gusting 9 10.0
2019-Jan-21 15:00 011 3 gusting 8 10.0
2019-Jan-21 14:55 330 6 gusting 9 10.0
2019-Jan-21 14:50 358 4 gusting 9 10.0
2019-Jan-21 14:40 340 6 gusting 10 10.0
2019-Jan-21 14:35 346 4 gusting 10 10.0
2019-Jan-21 14:30 040 4 gusting 13 10.0
2019-Jan-21 14:20 324 1 gusting 10 9.4
2019-Jan-21 14:15 358 5 gusting 10 9.4
2019-Jan-21 14:05 354 6 gusting 12 9.4
2019-Jan-21 14:00 046 3 gusting 10 9.4
2019-Jan-21 13:55 012 5 gusting 12 10.0
2019-Jan-21 13:45 057 3 gusting 9 10.0
2019-Jan-21 13:40 013 5 gusting 9 9.4
2019-Jan-21 13:30 338 3 gusting 10 10.0
2019-Jan-21 13:25 025 2 gusting 13 9.4
2019-Jan-21 13:20 030 8 gusting 13 10.0
2019-Jan-21 13:10 006 5 gusting 14 10.0
2019-Jan-21 13:05 314 6 gusting 14 10.0
2019-Jan-21 13:00 315 4 gusting 12 10.0
2019-Jan-21 12:55 314 6 gusting 11 10.0
2019-Jan-21 12:50 331 5 gusting 11 10.0
2019-Jan-21 12:40 340 6 gusting 13 9.4
2019-Jan-21 12:35 343 4 gusting 13 9.4
2019-Jan-21 12:30 330 7 gusting 13 9.4
2019-Jan-21 12:20 346 4 gusting 12 9.4
2019-Jan-21 12:15 005 8 gusting 11 9.4
2019-Jan-21 12:10 030 6 gusting 12 9.4
2019-Jan-21 12:00 359 6 gusting 10 9.4
2019-Jan-21 11:55 360 5 gusting 9 8.9
2019-Jan-21 11:45 021 4 gusting 8 8.9
2019-Jan-21 11:40 001 5 gusting 8 8.9
2019-Jan-21 11:35 058 2 gusting 7 8.9
2019-Jan-21 11:30 338 2 gusting 7 8.9
2019-Jan-21 11:20 032 0 gusting 5 8.3
2019-Jan-21 11:15 331 0 gusting 5 8.3
2019-Jan-21 11:05 030 0 gusting 2 7.8
2019-Jan-21 11:00 058 0 gusting 3 7.8
2019-Jan-21 10:55 286 0 gusting 3 7.8
2019-Jan-21 10:50 124 7.8
2019-Jan-21 10:40 096 0 gusting 2 7.2
2019-Jan-21 10:35 124 7.2
2019-Jan-21 10:30 062 0 gusting 3 7.2
2019-Jan-21 10:25 300 1 gusting 3 7.2
2019-Jan-21 10:20 325 0 gusting 6 6.7
2019-Jan-21 10:10 309 4 gusting 6 6.7
2019-Jan-21 10:05 284 1 gusting 5 6.1
2019-Jan-21 10:00 294 3 gusting 5 6.1
2019-Jan-21 09:55 301 1 gusting 4 6.1
2019-Jan-21 09:50 311 2 gusting 4 6.1
2019-Jan-21 09:45 304 2 gusting 4 5.6
2019-Jan-21 09:40 309 4.4
2019-Jan-21 09:35 295 0 gusting 2 3.9
2019-Jan-21 09:30 271 0 gusting 1 3.9
2019-Jan-21 09:25 285 0 gusting 1 3.3
2019-Jan-21 09:20 276 3.3
2019-Jan-21 09:10 274 2.8
2019-Jan-21 09:05 251 0 gusting 0 2.8
2019-Jan-21 09:00 248 2.2
2019-Jan-21 08:55 280 0 gusting 1 2.2
2019-Jan-21 08:50 271 0 gusting 2 2.2
2019-Jan-21 08:40 266 0 gusting 1 2.2
2019-Jan-21 08:35 259 0 gusting 0 1.7
2019-Jan-21 08:30 285 1.7
2019-Jan-21 08:20 273 1.7
2019-Jan-21 08:15 260 0 gusting 5 1.7
2019-Jan-21 08:10 218 2 gusting 2 2.2
2019-Jan-21 08:00 214 2 gusting 3 1.7
2019-Jan-21 07:55 215 1 gusting 3 1.7
2019-Jan-21 07:50 225 1 gusting 3 1.7
2019-Jan-21 07:45 255 2 gusting 3 1.7
2019-Jan-21 07:35 238 2 gusting 2 0.6
2019-Jan-21 07:30 240 1 gusting 3 -0.0
2019-Jan-21 07:25 240 1 gusting 3 -0.0
2019-Jan-21 07:20 239 1 gusting 4 -0.0
2019-Jan-21 07:15 252 1 gusting 4 0.6
2019-Jan-21 07:05 263 0 gusting 2 1.1
2019-Jan-21 07:00 250 1.1
2019-Jan-21 06:55 240 1 gusting 2 1.1
2019-Jan-21 06:50 285 1 gusting 6 1.7
2019-Jan-21 06:40 233 1 gusting 2 0.6
2019-Jan-21 06:35 280 0 gusting 3 -0.0
2019-Jan-21 06:25 321 1.1
2019-Jan-21 06:20 134 1.1
2019-Jan-21 06:10 226 0 gusting 2 1.7
2019-Jan-21 06:05 205 0 gusting 4 1.7
2019-Jan-21 05:55 222 1 gusting 3 1.7
2019-Jan-21 05:50 233 0 gusting 2 1.7
2019-Jan-21 05:40 172 2.8
2019-Jan-21 05:30 210 1 gusting 1 2.8
2019-Jan-21 05:25 235 0 gusting 2 2.2
2019-Jan-21 05:20 219 1 gusting 2 1.7
2019-Jan-21 05:15 207 0 gusting 1 1.7
2019-Jan-21 05:05 165 1.1
2019-Jan-21 05:00 180 0 gusting 3 1.1
2019-Jan-21 04:55 204 0 gusting 3 1.1
2019-Jan-21 04:50 238 1 gusting 3 1.1
2019-Jan-21 04:45 226 2 gusting 3 1.1
2019-Jan-21 04:40 224 1 gusting 3 1.1
2019-Jan-21 04:35 248 0 gusting 1 0.6
2019-Jan-21 04:30 249 0 gusting 1 0.6
2019-Jan-21 04:20 277 0 gusting 2 1.1
2019-Jan-21 04:15 284 1 gusting 2 1.7
2019-Jan-21 04:05 269 2 gusting 6 2.8
2019-Jan-21 04:00 298 1 gusting 4 3.3
2019-Jan-21 03:55 310 1 gusting 4 3.3
2019-Jan-21 03:50 301 2 gusting 5 3.9
2019-Jan-21 03:45 341 2 gusting 5 4.4
2019-Jan-21 03:40 285 0 gusting 2 4.4
2019-Jan-21 03:35 308 0 gusting 2 3.9
2019-Jan-21 03:30 270 0 gusting 3 4.4
2019-Jan-21 03:25 290 0 gusting 3 3.3
2019-Jan-21 03:15 281 1 gusting 3 2.8
2019-Jan-21 03:10 284 1 gusting 3 2.2
2019-Jan-21 03:00 285 0 gusting 4 1.7
2019-Jan-21 02:55 267 1 gusting 4 1.7
2019-Jan-21 02:50 276 2 gusting 3 1.7
2019-Jan-21 02:45 284 1 gusting 2 1.7
2019-Jan-21 02:35 285 1 gusting 3 2.8
2019-Jan-21 02:30 300 1 gusting 2 3.3
2019-Jan-21 02:25 294 1 gusting 2 3.3
2019-Jan-21 02:20 293 0 gusting 2 3.9
2019-Jan-21 02:15 288 0 gusting 1 3.9
2019-Jan-21 02:10 277 0 gusting 3 3.9
2019-Jan-21 02:00 266 2 gusting 3 3.9
2019-Jan-21 01:55 267 2 gusting 3 3.3
2019-Jan-21 01:50 255 1 gusting 2 2.8
2019-Jan-21 01:40 221 2 gusting 3 2.8
2019-Jan-21 01:35 266 2 gusting 3 2.2
2019-Jan-21 01:30 257 1 gusting 2 1.7
2019-Jan-21 01:25 256 0 gusting 3 1.7
2019-Jan-21 01:20 252 2 gusting 3 1.7
2019-Jan-21 01:10 255 1 gusting 2 1.7
2019-Jan-21 01:05 253 0 gusting 3 2.2
2019-Jan-21 01:00 256 0 gusting 3 2.2